Home > Weather > Preveza > Past weeks

Flag for Greece Weather for the Past 2 Weeks in Preveza, Greece

Now
55 °F

Passing clouds.


Feels Like: 55 °F
Forecast: 55 / 69 °F
Wind: No wind

Location: Aktion Airport

Current Time: May 7, 2016 at 12:37:53 AM

Latest Report: May 6, 2016 at 11:50 PM


Visibility: N/A

Pressure: 30.01 "Hg

Humidity: 82%

Dew Point: 50 °F

Location of PrevezaLocation

Historic Weather in Preveza — Graph

°F

Preveza Temperature Yesterday

Maximum temperature yesterday: 70 °F (at 1:50 PM)
Minimum temperature yesterday: 54 °F (at 6:20 AM)
Average temperature yesterday: 64 °F

High & Low Weather Summary for the Past Weeks

 TemperatureHumidityPressure
High73 °F (May 1, 10:50 AM)94% (Apr 30, 4:50 AM)30.18 "Hg (Apr 30, 4:50 AM)
Low48 °F (Apr 27, 3:50 AM)41% (May 2, 12:50 PM)29.59 "Hg (Apr 24, 4:50 PM)
Average63 °F69%29.87 "Hg
* Reported Apr 21 10:50 PM — May 6 10:50 PM, Preveza, Weather by CustomWeather, © 2016

Note: Actual official high and low records may vary slightly from our data, if they occured in-between our weather recording intervals... More about our weather records

Advertising

Preveza Weather History for the Previous 24 Hours

Scroll right to see more
 ConditionsComfort  
Time TempWeatherWind HumidityBarometerVisibility
10:50 PM
Fri, May 6
59 °FPassing clouds.5 mph72%30.01 "HgN/A
9:50 PM61 °FPassing clouds.5 mph72%29.98 "HgN/A
8:50 PM61 °FPassing clouds.7 mph77%29.98 "HgN/A
8:20 PM63 °FScattered clouds.8 mph68%29.95 "HgN/A
7:50 PM64 °FScattered clouds.8 mph64%29.95 "HgN/A
7:20 PM66 °FScattered clouds.7 mph60%29.95 "HgN/A
6:50 PM66 °FScattered clouds.8 mph60%29.95 "HgN/A
6:20 PM70 °FScattered clouds.8 mph57%29.98 "HgN/A
5:50 PM70 °FScattered clouds.9 mph57%29.95 "HgN/A
5:20 PM70 °FScattered clouds.9 mph57%29.95 "HgN/A
4:50 PM70 °FScattered clouds.9 mph57%29.95 "HgN/A
4:20 PM70 °FScattered clouds.9 mph57%29.95 "HgN/A
3:50 PM70 °FScattered clouds.10 mph57%29.98 "HgN/A
3:20 PM70 °FScattered clouds.10 mph57%29.98 "HgN/A
2:50 PM70 °FScattered clouds.10 mph57%29.98 "HgN/A
2:20 PM70 °FScattered clouds.9 mph57%29.98 "HgN/A
1:50 PM70 °FPassing clouds.9 mph60%29.98 "HgN/A
1:20 PM68 °FPassing clouds.12 mph60%29.98 "HgN/A
12:50 PM68 °FScattered clouds.10 mph60%29.98 "HgN/A
12:20 PM68 °FPassing clouds.10 mph64%29.98 "HgN/A
11:50 AM66 °FPassing clouds.9 mph64%29.98 "HgN/A
10:50 AM68 °FPartly sunny.6 mph56%29.98 "HgN/A
10:20 AM64 °FPartly sunny.9 mph68%29.98 "HgN/A
9:50 AM63 °FPartly sunny.9 mph68%29.98 "HgN/A
9:20 AM63 °FScattered clouds.10 mph73%29.98 "HgN/A
8:50 AM61 °FScattered clouds.9 mph77%29.98 "HgN/A
8:20 AM59 °FScattered clouds.10 mph77%29.95 "HgN/A
7:20 AM57 °FPassing clouds.8 mph82%29.95 "HgN/A
6:50 AM54 °FPassing clouds.6 mph88%29.95 "HgN/A
6:20 AM54 °FPassing clouds.3 mph82%29.95 "HgN/A
5:50 AM55 °FPassing clouds.5 mph82%29.95 "HgN/A
4:50 AM57 °FPassing clouds.8 mph77%29.98 "HgN/A
3:50 AM59 °FPassing clouds.3 mph82%29.95 "HgN/A
2:50 AM57 °FPassing clouds.5 mph82%29.98 "HgN/A
1:50 AM55 °FPassing clouds.No wind82%29.98 "HgN/A
12:50 AM57 °FPassing clouds.No wind77%29.98 "HgN/A
Weather by CustomWeather, © 2016

See weather overviewHow to use our weather pages